Lid_Strength_Index
-1 -1 -1 -1 0 -0 -2 -2 -1 -2 -2 0 -1 -0 -0 0 1 2 5 2 0 -2 -1 2 4 5 6 6 5 6 11 13 12 11 11 10 10 9 8 8 6 5 6 4 3
-0 -1 -1 -1 -1 -1 -1 -1 -2 -1 -2 -2 0 -1 -0 0 3 5 1 -1 -1 -1 3 4 5 4 8 8 7 8 11 11 10 10 10 9 9 10 10 9 8 7 4 3 3
0 -0 -1 -1 -1 -1 -1 -0 -0 -1 -1 -1 -1 -1 -1 1 5 5 -0 -1 -1 -0 2 3 4 5 8 8 8 8 11 8 9 9 8 9 10 9 10 11 8 7 6 4 4
0 -0 -0 -0 -1 -1 -1 -1 -1 -1 -1 -1 -1 -1 -1 1 13 4 0 -1 -1 2 3 4 5 8 9 10 8 10 8 8 7 8 8 9 8 10 10 10 8 7 4 4 4
0 0 0 -0 -0 -1 -1 -2 -2 -1 -1 -1 -1 -1 1 5 5 1 -1 -1 2 3 4 5 7 8 10 9 9 10 8 7 7 7 8 8 9 9 9 8 6 4 4 5 4
-1 -1 0 0 0 0 -0 -1 -2 -1 -1 -1 -2 -1 3 9 0 0 -0 1 2 3 4 5 6 7 9 9 10 9 9 8 8 7 7 8 9 8 8 8 7 5 5 5 4
-1 -1 -1 0 1 1 -0 -1 -1 -2 -1 -1 -0 0 4 5 0 -0 -0 1 1 2 5 5 5 7 8 10 7 8 10 9 9 8 8 7 10 9 6 7 7 6 5 5 4
-1 -1 -1 -1 -0 1 0 -0 -1 -1 -2 -1 -2 2 7 1 1 1 0 1 1 1 2 2 3 5 7 8 8 10 11 14 10 9 8 8 12 9 6 7 6 7 8 7 5
-0 -1 -1 -1 -1 -1 0 -0 -1 -1 -2 -1 1 4 9 1 3 2 1 3 2 2 2 2 4 7 8 11 13 12 16 14 12 10 10 9 12 8 8 8 8 8 8 7 7
-1 -0 -1 -1 -1 -1 -1 -1 -0 0 -0 -0 1 6 8 7 3 2 1 1 4 4 5 6 7 10 11 12 17 16 14 14 14 12 12 12 11 10 8 9 9 9 9 9 7
-1 -1 -1 -1 -1 -1 -0 1 5 6 3 6 6 8 8 5 2 3 2 3 4 6 11 8 11 14 12 11 11 11 13 13 13 10 12 13 13 10 9 10 10 10 10 10 9
-1 -1 -2 -1 -1 -1 0 5 5 4 8 4 4 5 5 4 7 4 2 7 8 11 9 11 13 10 9 10 11 11 13 14 11 10 11 11 12 10 9 9 9 9 9 9 9
-2 -2 -2 -2 -2 -0 3 3 1 1 8 7 5 6 5 4 7 7 4 6 9 10 11 12 11 8 10 11 12 12 13 13 13 11 11 12 13 12 9 9 8 8 7 7 8
-2 -2 -1 -2 1 2 4 2 0 0 12 11 8 6 5 4 8 4 3 6 9 11 10 11 8 10 11 12 11 15 10 11 12 14 17 13 18 14 12 11 10 9 8 7 6
-2 -1 -1 -1 3 4 4 1 -0 3 20 9 9 2 4 8 7 7 3 6 10 10 10 12 11 11 12 12 10 13 9 11 12 14 16 16 17 16 13 13 11 9 9 8 7
-2 -1 -1 0 1 2 1 0 2 13 19 12 9 9 9 8 8 7 7 5 6 10 9 11 8 9 10 9 9 9 11 12 12 14 18 15 16 18 15 12 11 11 10 9 9
-1 -1 -1 -0 4 1 0 4 13 18 10 13 12 10 10 11 10 9 10 11 12 15 15 12 11 10 9 11 9 10 13 19 19 19 20 16 16 15 14 12 12 11 10 9 9
-1 -1 -1 0 -0 -0 2 9 17 13 13 10 10 10 13 10 11 10 11 13 10 11 14 16 17 12 10 11 13 12 13 18 22 21 20 16 18 16 12 11 11 10 11 9 10
-1 1 2 0 -1 0 7 15 15 12 10 12 11 13 13 11 11 12 12 12 11 10 14 15 15 11 10 9 9 13 15 11 16 21 20 19 17 14 13 13 11 11 10 10 10
2 3 3 -0 -0 3 10 13 12 9 9 9 14 12 15 13 13 13 13 10 11 9 9 12 16 12 10 9 9 11 10 16 15 22 23 20 19 18 16 13 12 12 11 10 10
3 6 2 -0 1 7 13 12 10 8 7 11 12 13 13 13 12 13 13 11 9 9 8 11 13 14 11 13 13 12 14 13 13 16 19 22 19 15 13 12 11 12 11 10 10
4 10 3 1 9 9 12 10 8 9 7 9 10 11 12 11 13 13 13 11 8 8 12 10 12 16 14 12 11 10 12 12 17 18 16 17 17 13 13 12 12 11 10 10 9
7 7 2 2 12 11 9 10 9 9 9 10 11 10 10 12 14 12 11 8 8 8 11 10 14 18 17 13 12 13 12 11 11 14 16 18 17 10 12 13 12 11 10 9 9
7 10 7 6 7 10 13 11 11 8 9 8 10 9 11 12 10 12 12 9 8 8 7 8 13 14 17 15 13 14 13 12 13 16 15 15 14 12 12 12 11 11 9 9 9
8 12 9 11 10 12 9 10 11 12 9 8 10 10 11 13 13 13 10 10 9 8 9 10 15 13 12 14 12 13 13 13 14 13 15 13 13 11 10 10 11 11 10 9 10
10 10 8 13 9 10 9 11 11 10 10 11 11 10 10 12 12 13 11 11 11 9 10 10 15 13 15 13 13 14 12 12 12 12 12 12 12 8 7 8 10 10 10 10 9
5 5 7 8 9 10 11 11 10 10 9 8 9 10 11 10 8 8 8 8 10 10 11 12 13 15 17 13 15 17 14 13 12 11 11 14 11 8 8 10 9 10 10 9 8